UKV4105 EINN-EGPF

Flight info

Callsign UKV4105
Flight time 1h 11m
Altitude 19000
Route PELIG3B PELIG DCT ROTEV DCT GOTNA P600 BLACA
Aircraft AT76/M-SDFGIRY/S

Departure

Time 2026-05-07 18:53
Airport Shannon Airport (EINN)

Arrival

Time 2026-05-07 20:04
Airport Glasgow Airport (EGPF)
Time Latitude Longitude Altitude Speed Heading
2026-05-07 18:35 52.69385 -8.92404 19 ft 0 kts 185°
2026-05-07 18:41 52.69388 -8.92404 19 ft 3 kts 185°
2026-05-07 18:41 52.69414 -8.92400 19 ft 4 kts 185°
2026-05-07 18:41 52.69440 -8.92396 19 ft 2 kts 185°
2026-05-07 18:41 52.69462 -8.92395 21 ft 4 kts 167°
2026-05-07 18:42 52.69482 -8.92413 19 ft 4 kts 107°
2026-05-07 18:42 52.69485 -8.92446 22 ft 1 kts 95°
2026-05-07 18:42 52.69485 -8.92447 22 ft 0 kts 95°
2026-05-07 18:45 52.69484 -8.92427 19 ft 5 kts 95°
2026-05-07 18:45 52.69477 -8.92323 19 ft 12 kts 97°
2026-05-07 18:45 52.69489 -8.92176 19 ft 13 kts 91°
2026-05-07 18:46 52.69471 -8.92040 21 ft 12 kts 105°
2026-05-07 18:46 52.69450 -8.91896 19 ft 13 kts 105°
2026-05-07 18:46 52.69414 -8.91758 20 ft 13 kts 114°
2026-05-07 18:46 52.69365 -8.91640 19 ft 13 kts 134°
2026-05-07 18:47 52.69302 -8.91547 19 ft 11 kts 113°
2026-05-07 18:47 52.69330 -8.91495 19 ft 7 kts 20°
2026-05-07 18:47 52.69381 -8.91464 20 ft 9 kts 20°
2026-05-07 18:47 52.69443 -8.91427 19 ft 10 kts 20°
2026-05-07 18:48 52.69527 -8.91381 20 ft 16 kts 19°
2026-05-07 18:48 52.69630 -8.91322 19 ft 15 kts 19°
2026-05-07 18:48 52.69726 -8.91267 19 ft 14 kts 18°
2026-05-07 18:48 52.69819 -8.91218 19 ft 15 kts 18°
2026-05-07 18:49 52.69928 -8.91158 20 ft 16 kts 19°
2026-05-07 18:49 52.70025 -8.91102 20 ft 14 kts 17°
2026-05-07 18:49 52.70114 -8.91053 20 ft 14 kts 19°
2026-05-07 18:49 52.70208 -8.91002 21 ft 14 kts 17°
2026-05-07 18:50 52.70303 -8.90950 20 ft 15 kts 18°
2026-05-07 18:50 52.70399 -8.90897 20 ft 15 kts 18°
2026-05-07 18:50 52.70494 -8.90846 21 ft 14 kts 18°
2026-05-07 18:50 52.70585 -8.90799 21 ft 13 kts 18°
2026-05-07 18:51 52.70670 -8.90748 19 ft 13 kts 19°
2026-05-07 18:51 52.70761 -8.90697 19 ft 19 kts 18°
2026-05-07 18:51 52.70874 -8.90665 19 ft 15 kts 347°
2026-05-07 18:51 52.70948 -8.90749 19 ft 12 kts 312°
2026-05-07 18:52 52.70951 -8.90892 21 ft 6 kts 233°
2026-05-07 18:52 52.70938 -8.90919 20 ft 20 kts 232°
2026-05-07 18:52 52.70719 -8.91386 22 ft 82 kts 232°
2026-05-07 18:52 52.70262 -8.92351 50 ft 126 kts 231°
2026-05-07 18:53 52.69635 -8.93497 278 ft 143 kts 223°
2026-05-07 18:53 52.68967 -8.94645 829 ft 141 kts 233°
2026-05-07 18:53 52.68321 -8.95902 1272 ft 145 kts 229°
2026-05-07 18:53 52.67643 -8.97235 1509 ft 157 kts 232°
2026-05-07 18:54 52.67235 -8.98942 1691 ft 170 kts 267°
2026-05-07 18:54 52.67552 -9.00814 2049 ft 173 kts 310°
2026-05-07 18:54 52.68684 -9.01465 2494 ft 181 kts 356°
2026-05-07 18:54 52.69900 -9.01804 2818 ft 175 kts 322°
2026-05-07 18:55 52.70673 -9.03262 3124 ft 169 kts 298°
2026-05-07 18:55 52.71274 -9.04935 3490 ft 170 kts 293°
2026-05-07 18:55 52.71791 -9.06692 3876 ft 171 kts 290°
2026-05-07 18:55 52.72398 -9.08360 4212 ft 176 kts 318°
2026-05-07 18:56 52.73601 -9.08888 4547 ft 189 kts
2026-05-07 18:56 52.74912 -9.08538 4904 ft 193 kts 11°
2026-05-07 18:56 52.76198 -9.07891 5308 ft 195 kts 17°
2026-05-07 18:56 52.77471 -9.07093 5696 ft 196 kts 19°
2026-05-07 18:57 52.78748 -9.06250 6086 ft 198 kts 19°
2026-05-07 18:57 52.80034 -9.05427 6439 ft 199 kts 18°
2026-05-07 18:57 52.81335 -9.04623 6798 ft 200 kts 18°
2026-05-07 18:57 52.82639 -9.03833 7150 ft 200 kts 18°
2026-05-07 18:58 52.83952 -9.03034 7495 ft 202 kts 18°
2026-05-07 18:58 52.85272 -9.02232 7835 ft 203 kts 18°
2026-05-07 18:58 52.86601 -9.01423 8199 ft 203 kts 18°
2026-05-07 18:58 52.87931 -9.00612 8552 ft 205 kts 18°
2026-05-07 18:59 52.89272 -8.99794 8924 ft 206 kts 18°
2026-05-07 18:59 52.90620 -8.98979 9277 ft 207 kts 18°
2026-05-07 18:59 52.91959 -8.98165 9605 ft 209 kts 18°
2026-05-07 18:59 52.93325 -8.97334 9929 ft 209 kts 17°
2026-05-07 19:00 52.94695 -8.96504 10230 ft 211 kts 17°
2026-05-07 19:00 52.96004 -8.95421 10456 ft 215 kts 42°
2026-05-07 19:00 52.96891 -8.93425 10743 ft 216 kts 60°
2026-05-07 19:00 52.97642 -8.91258 11038 ft 217 kts 61°
2026-05-07 19:01 52.98393 -8.89075 11319 ft 218 kts 60°
2026-05-07 19:01 52.99167 -8.86897 11604 ft 219 kts 59°
2026-05-07 19:01 52.99982 -8.84748 11888 ft 221 kts 57°
2026-05-07 19:01 53.00819 -8.82603 12169 ft 222 kts 57°
2026-05-07 19:02 53.01660 -8.80444 12449 ft 223 kts 57°
2026-05-07 19:02 53.02507 -8.78276 12718 ft 224 kts 57°
2026-05-07 19:02 53.03358 -8.76094 12982 ft 226 kts 57°
2026-05-07 19:02 53.04214 -8.73898 13248 ft 227 kts 57°
2026-05-07 19:03 53.05075 -8.71686 13515 ft 228 kts 57°
2026-05-07 19:03 53.05939 -8.69465 13787 ft 229 kts 57°
2026-05-07 19:03 53.06806 -8.67230 14024 ft 231 kts 57°
2026-05-07 19:03 53.07678 -8.64979 14233 ft 232 kts 57°
2026-05-07 19:04 53.08554 -8.62715 14473 ft 233 kts 57°
2026-05-07 19:04 53.09422 -8.60473 14690 ft 234 kts 57°
2026-05-07 19:04 53.10307 -8.58185 14889 ft 236 kts 57°
2026-05-07 19:04 53.11194 -8.55890 15093 ft 236 kts 57°
2026-05-07 19:05 53.12085 -8.53583 15290 ft 237 kts 58°
2026-05-07 19:05 53.12979 -8.51264 15497 ft 238 kts 58°
2026-05-07 19:05 53.13879 -8.48936 15710 ft 239 kts 58°
2026-05-07 19:05 53.14776 -8.46600 15917 ft 240 kts 58°
2026-05-07 19:06 53.15679 -8.44248 16119 ft 241 kts 58°
2026-05-07 19:06 53.17496 -8.39513 16503 ft 243 kts 58°
2026-05-07 19:06 53.18409 -8.37133 16684 ft 244 kts 58°
2026-05-07 19:07 53.19328 -8.34736 16867 ft 245 kts 58°
2026-05-07 19:07 53.20248 -8.32332 17041 ft 246 kts 58°
2026-05-07 19:07 53.21171 -8.29920 17214 ft 247 kts 58°
2026-05-07 19:07 53.22096 -8.27498 17382 ft 248 kts 58°
2026-05-07 19:08 53.23024 -8.25066 17548 ft 249 kts 58°
2026-05-07 19:08 53.23957 -8.22628 17743 ft 250 kts 58°
2026-05-07 19:08 53.24890 -8.20178 17916 ft 250 kts 58°
2026-05-07 19:08 53.25816 -8.17747 18092 ft 251 kts 59°
2026-05-07 19:09 53.26753 -8.15273 18252 ft 252 kts 59°
2026-05-07 19:09 53.27692 -8.12794 18401 ft 253 kts 59°
2026-05-07 19:09 53.28636 -8.10310 18545 ft 253 kts 59°
2026-05-07 19:09 53.29580 -8.07823 18693 ft 254 kts 59°
2026-05-07 19:10 53.30523 -8.05328 18822 ft 255 kts 59°
2026-05-07 19:10 53.31479 -8.02800 18880 ft 259 kts 59°
2026-05-07 19:10 53.32450 -8.00232 18905 ft 264 kts 59°
2026-05-07 19:10 53.33438 -7.97614 18919 ft 268 kts 59°
2026-05-07 19:11 53.34443 -7.94956 18926 ft 273 kts 59°
2026-05-07 19:11 53.35462 -7.92252 18928 ft 276 kts 59°
2026-05-07 19:11 53.36490 -7.89520 18929 ft 278 kts 59°
2026-05-07 19:11 53.37526 -7.86769 18930 ft 280 kts 59°
2026-05-07 19:12 53.38569 -7.83994 18932 ft 282 kts 59°
2026-05-07 19:12 53.39615 -7.81202 18929 ft 284 kts 59°
2026-05-07 19:12 53.40667 -7.78396 18929 ft 285 kts 59°
2026-05-07 19:12 53.41722 -7.75578 18930 ft 286 kts 59°
2026-05-07 19:13 53.42782 -7.72747 18927 ft 286 kts 59°
2026-05-07 19:13 53.43842 -7.69911 18930 ft 287 kts 59°
2026-05-07 19:13 53.44900 -7.67072 18931 ft 287 kts 59°
2026-05-07 19:13 53.45958 -7.64229 18934 ft 288 kts 59°
2026-05-07 19:14 53.47018 -7.61380 18933 ft 288 kts 59°
2026-05-07 19:14 53.48081 -7.58528 18932 ft 288 kts 59°
2026-05-07 19:14 53.49143 -7.55669 18933 ft 288 kts 59°
2026-05-07 19:14 53.50201 -7.52813 18938 ft 289 kts 59°
2026-05-07 19:15 53.51264 -7.49946 18935 ft 289 kts 59°
2026-05-07 19:15 53.52329 -7.47074 18932 ft 289 kts 59°
2026-05-07 19:15 53.53390 -7.44202 18932 ft 290 kts 59°
2026-05-07 19:15 53.54454 -7.41318 18931 ft 290 kts 59°
2026-05-07 19:16 53.55517 -7.38436 18931 ft 290 kts 59°
2026-05-07 19:16 53.56582 -7.35549 18933 ft 290 kts 59°
2026-05-07 19:16 53.57643 -7.32663 18931 ft 290 kts 59°
2026-05-07 19:16 53.58705 -7.29773 18934 ft 290 kts 59°
2026-05-07 19:17 53.59766 -7.26881 18917 ft 291 kts 59°
2026-05-07 19:17 53.60829 -7.23990 18923 ft 290 kts 59°
2026-05-07 19:17 53.61887 -7.21103 18926 ft 290 kts 59°
2026-05-07 19:17 53.62940 -7.18216 18928 ft 289 kts 59°
2026-05-07 19:18 53.63994 -7.15331 18932 ft 289 kts 59°
2026-05-07 19:18 53.64693 -7.13417 18932 ft 289 kts 59°
2026-05-07 19:18 53.65747 -7.10527 18930 ft 289 kts 59°
2026-05-07 19:18 53.66798 -7.07640 18934 ft 289 kts 60°
2026-05-07 19:19 53.67850 -7.04749 18930 ft 289 kts 60°
2026-05-07 19:19 53.68902 -7.01855 18930 ft 289 kts 60°
2026-05-07 19:19 53.69951 -6.98966 18930 ft 289 kts 60°
2026-05-07 19:19 53.71001 -6.96071 18930 ft 289 kts 60°
2026-05-07 19:20 53.72050 -6.93176 18934 ft 289 kts 60°
2026-05-07 19:20 53.73097 -6.90281 18935 ft 289 kts 60°
2026-05-07 19:20 53.74143 -6.87385 18931 ft 289 kts 60°
2026-05-07 19:20 53.75191 -6.84485 18932 ft 289 kts 60°
2026-05-07 19:21 53.76234 -6.81590 18930 ft 289 kts 60°
2026-05-07 19:21 53.77280 -6.78685 18923 ft 289 kts 60°
2026-05-07 19:21 53.78324 -6.75792 18928 ft 288 kts 60°
2026-05-07 19:21 53.79366 -6.72894 18928 ft 288 kts 60°
2026-05-07 19:22 53.80404 -6.69999 18931 ft 288 kts 60°
2026-05-07 19:22 53.81442 -6.67101 18942 ft 288 kts 60°
2026-05-07 19:22 53.82479 -6.64201 18939 ft 288 kts 60°
2026-05-07 19:22 53.83506 -6.61332 18937 ft 288 kts 60°
2026-05-07 19:23 53.84545 -6.58428 18937 ft 288 kts 60°
2026-05-07 19:23 53.85593 -6.55483 18934 ft 288 kts 60°
2026-05-07 19:23 53.86617 -6.52607 18934 ft 288 kts 60°
2026-05-07 19:23 53.87666 -6.49663 18939 ft 289 kts 60°
2026-05-07 19:24 53.88689 -6.46787 18935 ft 288 kts 60°
2026-05-07 19:24 53.89727 -6.43871 18936 ft 288 kts 60°
2026-05-07 19:24 53.90764 -6.40958 18937 ft 289 kts 60°
2026-05-07 19:24 53.91795 -6.38041 18936 ft 288 kts 60°
2026-05-07 19:25 53.92825 -6.35119 18936 ft 288 kts 60°
2026-05-07 19:25 53.93856 -6.32200 18937 ft 288 kts 60°
2026-05-07 19:25 53.94887 -6.29278 18936 ft 288 kts 60°
2026-05-07 19:25 53.95918 -6.26363 18939 ft 288 kts 60°
2026-05-07 19:26 53.96946 -6.23448 18940 ft 288 kts 60°
2026-05-07 19:26 53.97971 -6.20529 18940 ft 287 kts 60°
2026-05-07 19:26 53.98995 -6.17605 18941 ft 288 kts 60°
2026-05-07 19:26 54.00020 -6.14688 18940 ft 287 kts 60°
2026-05-07 19:27 54.01043 -6.11768 18935 ft 287 kts 60°
2026-05-07 19:27 54.02065 -6.08848 18945 ft 287 kts 60°
2026-05-07 19:27 54.03350 -6.06301 18947 ft 284 kts 36°
2026-05-07 19:27 54.05035 -6.04580 18948 ft 282 kts 23°
2026-05-07 19:28 54.06828 -6.03221 18945 ft 282 kts 20°
2026-05-07 19:28 54.08632 -6.01917 18946 ft 282 kts 21°
2026-05-07 19:28 54.10432 -6.00548 18951 ft 284 kts 22°
2026-05-07 19:28 54.12217 -5.99095 18950 ft 285 kts 24°
2026-05-07 19:29 54.14002 -5.97618 18955 ft 286 kts 24°
2026-05-07 19:29 54.15790 -5.96148 18935 ft 285 kts 23°
2026-05-07 19:29 54.17577 -5.94684 18945 ft 285 kts 23°
2026-05-07 19:29 54.19361 -5.93212 18933 ft 285 kts 24°
2026-05-07 19:30 54.21141 -5.91740 18928 ft 284 kts 23°
2026-05-07 19:30 54.22924 -5.90284 18949 ft 283 kts 23°
2026-05-07 19:30 54.24700 -5.88825 18954 ft 284 kts 23°
2026-05-07 19:30 54.26484 -5.87357 18949 ft 285 kts 23°
2026-05-07 19:31 54.28268 -5.85881 18945 ft 285 kts 24°
2026-05-07 19:31 54.30057 -5.84403 18944 ft 286 kts 24°
2026-05-07 19:31 54.31850 -5.82923 18943 ft 286 kts 24°
2026-05-07 19:31 54.33641 -5.81439 18943 ft 286 kts 24°
2026-05-07 19:32 54.35437 -5.79952 18940 ft 286 kts 24°
2026-05-07 19:32 54.37233 -5.78465 18950 ft 287 kts 24°
2026-05-07 19:32 54.39031 -5.76967 18948 ft 288 kts 24°
2026-05-07 19:32 54.40833 -5.75470 18946 ft 288 kts 24°
2026-05-07 19:33 54.42638 -5.73970 18942 ft 288 kts 24°
2026-05-07 19:33 54.44441 -5.72469 18941 ft 288 kts 24°
2026-05-07 19:33 54.46249 -5.70964 18940 ft 288 kts 24°
2026-05-07 19:33 54.48053 -5.69455 18941 ft 288 kts 24°
2026-05-07 19:34 54.49836 -5.67967 18937 ft 288 kts 24°
2026-05-07 19:34 54.51663 -5.66438 18938 ft 288 kts 24°
2026-05-07 19:34 54.53446 -5.64950 18938 ft 288 kts 24°
2026-05-07 19:34 54.55250 -5.63447 18939 ft 288 kts 24°
2026-05-07 19:35 54.57059 -5.61931 18944 ft 288 kts 24°
2026-05-07 19:35 54.58866 -5.60420 18944 ft 289 kts 24°
2026-05-07 19:35 54.60567 -5.58621 18941 ft 288 kts 39°
2026-05-07 19:35 54.62050 -5.56282 18941 ft 290 kts 44°
2026-05-07 19:36 54.63501 -5.53850 18949 ft 290 kts 44°
2026-05-07 19:36 54.64971 -5.51453 18943 ft 291 kts 42°
2026-05-07 19:36 54.66489 -5.49127 18940 ft 291 kts 40°
2026-05-07 19:36 54.68022 -5.46838 18939 ft 291 kts 40°
2026-05-07 19:37 54.69550 -5.44531 18939 ft 292 kts 41°
2026-05-07 19:37 54.71072 -5.42213 18940 ft 292 kts 41°
2026-05-07 19:37 54.72596 -5.39900 18935 ft 291 kts 41°
2026-05-07 19:37 54.74117 -5.37582 18937 ft 291 kts 41°
2026-05-07 19:38 54.75636 -5.35265 18937 ft 291 kts 41°
2026-05-07 19:38 54.77154 -5.32949 18939 ft 291 kts 41°
2026-05-07 19:38 54.78671 -5.30631 18941 ft 291 kts 41°
2026-05-07 19:38 54.80193 -5.28310 18941 ft 291 kts 41°
2026-05-07 19:39 54.81708 -5.25991 18944 ft 291 kts 41°
2026-05-07 19:39 54.83226 -5.23668 18944 ft 291 kts 41°
2026-05-07 19:39 54.84744 -5.21341 18942 ft 291 kts 41°
2026-05-07 19:39 54.86241 -5.19040 18940 ft 291 kts 41°
2026-05-07 19:40 54.87779 -5.16682 18940 ft 291 kts 41°
2026-05-07 19:40 54.89377 -5.14644 18942 ft 288 kts 26°
2026-05-07 19:40 54.91190 -5.13166 18952 ft 288 kts 21°
2026-05-07 19:40 54.93031 -5.11793 18946 ft 288 kts 21°
2026-05-07 19:41 54.94861 -5.10357 18938 ft 289 kts 23°
2026-05-07 19:41 54.96669 -5.08809 18938 ft 290 kts 25°
2026-05-07 19:41 54.98469 -5.07215 18936 ft 289 kts 25°
2026-05-07 19:41 55.00256 -5.05650 18935 ft 286 kts 24°
2026-05-07 19:42 55.02037 -5.04113 18939 ft 284 kts 24°
2026-05-07 19:42 55.03806 -5.02583 18943 ft 284 kts 24°
2026-05-07 19:42 55.05568 -5.01052 18942 ft 282 kts 24°
2026-05-07 19:42 55.07323 -4.99529 18940 ft 283 kts 24°
2026-05-07 19:43 55.09089 -4.97988 18944 ft 285 kts 24°
2026-05-07 19:43 55.10866 -4.96441 18942 ft 286 kts 24°
2026-05-07 19:43 55.12652 -4.94887 18943 ft 287 kts 25°
2026-05-07 19:43 55.14446 -4.93326 18932 ft 288 kts 25°
2026-05-07 19:44 55.16238 -4.91747 18934 ft 288 kts 25°
2026-05-07 19:44 55.18034 -4.90170 18949 ft 289 kts 25°
2026-05-07 19:44 55.19834 -4.88585 18942 ft 290 kts 25°
2026-05-07 19:44 55.21641 -4.87003 18938 ft 291 kts 25°
2026-05-07 19:45 55.23448 -4.85408 18940 ft 289 kts 27°
2026-05-07 19:45 55.24957 -4.83123 18722 ft 291 kts 56°
2026-05-07 19:45 55.26073 -4.80117 18315 ft 298 kts 59°
2026-05-07 19:45 55.27254 -4.77059 17830 ft 307 kts 54°
2026-05-07 19:46 55.28636 -4.74160 17368 ft 312 kts 48°
2026-05-07 19:46 55.30138 -4.71407 16979 ft 313 kts 46°
2026-05-07 19:46 55.31657 -4.68659 16585 ft 314 kts 46°
2026-05-07 19:46 55.33157 -4.65870 16185 ft 314 kts 47°
2026-05-07 19:47 55.34816 -4.63449 15798 ft 309 kts 33°
2026-05-07 19:47 55.36597 -4.61309 15415 ft 310 kts 34°
2026-05-07 19:47 55.38376 -4.59147 15034 ft 311 kts 34°
2026-05-07 19:47 55.40156 -4.56981 14664 ft 311 kts 34°
2026-05-07 19:48 55.41943 -4.54809 14271 ft 312 kts 34°
2026-05-07 19:48 55.43707 -4.52663 13883 ft 313 kts 34°
2026-05-07 19:48 55.45492 -4.50480 13474 ft 313 kts 34°
2026-05-07 19:48 55.47283 -4.48282 13047 ft 313 kts 34°
2026-05-07 19:49 55.49060 -4.46093 12577 ft 310 kts 34°
2026-05-07 19:49 55.50816 -4.43924 12082 ft 305 kts 34°
2026-05-07 19:49 55.52536 -4.41810 11617 ft 298 kts 34°
2026-05-07 19:49 55.54224 -4.39736 11153 ft 293 kts 34°
2026-05-07 19:50 55.55883 -4.37694 10702 ft 288 kts 34°
2026-05-07 19:50 55.57524 -4.35710 10255 ft 282 kts 29°
2026-05-07 19:50 55.59267 -4.34230 9818 ft 276 kts 22°
2026-05-07 19:50 55.61000 -4.32784 9325 ft 274 kts 24°
2026-05-07 19:51 55.62713 -4.31329 8848 ft 273 kts 24°
2026-05-07 19:51 55.64417 -4.29875 8412 ft 270 kts 24°
2026-05-07 19:51 55.66094 -4.28437 8022 ft 266 kts 24°
2026-05-07 19:51 55.67750 -4.27025 7633 ft 263 kts 24°
2026-05-07 19:52 55.69393 -4.25629 7252 ft 260 kts 24°
2026-05-07 19:52 55.71021 -4.24246 6873 ft 258 kts 24°
2026-05-07 19:52 55.72635 -4.22879 6505 ft 256 kts 24°
2026-05-07 19:52 55.74217 -4.21538 6123 ft 255 kts 24°
2026-05-07 19:53 55.75833 -4.20170 5723 ft 253 kts 24°
2026-05-07 19:53 55.77400 -4.18849 5335 ft 252 kts 24°
2026-05-07 19:53 55.78979 -4.17530 4945 ft 247 kts 24°
2026-05-07 19:53 55.80472 -4.16280 4553 ft 229 kts 24°
2026-05-07 19:54 55.81877 -4.15108 4238 ft 215 kts 24°
2026-05-07 19:54 55.83188 -4.14024 4104 ft 207 kts 23°
2026-05-07 19:54 55.84506 -4.12942 4060 ft 210 kts 23°
2026-05-07 19:54 55.85835 -4.11838 4024 ft 211 kts 24°
2026-05-07 19:55 55.87166 -4.10733 4020 ft 211 kts 24°
2026-05-07 19:55 55.88498 -4.09614 4008 ft 212 kts 24°
2026-05-07 19:55 55.89845 -4.08485 3865 ft 215 kts 24°
2026-05-07 19:55 55.91199 -4.07354 3738 ft 214 kts 24°
2026-05-07 19:56 55.92528 -4.06252 3616 ft 204 kts 24°
2026-05-07 19:56 55.93768 -4.05226 3551 ft 191 kts 24°
2026-05-07 19:56 55.94949 -4.04242 3518 ft 185 kts 24°
2026-05-07 19:56 55.96134 -4.03391 3515 ft 183 kts 11°
2026-05-07 19:57 55.97329 -4.03678 3505 ft 171 kts 322°
2026-05-07 19:57 55.97956 -4.05284 3508 ft 153 kts 275°
2026-05-07 19:57 55.98113 -4.07152 3515 ft 153 kts 271°
2026-05-07 19:57 55.98239 -4.09077 3512 ft 159 kts 270°
2026-05-07 19:58 55.98346 -4.11072 3388 ft 161 kts 269°
2026-05-07 19:58 55.98459 -4.13037 3210 ft 157 kts 269°
2026-05-07 19:58 55.98573 -4.14931 3094 ft 150 kts 268°
2026-05-07 19:58 55.98681 -4.16750 3080 ft 145 kts 268°
2026-05-07 19:59 55.98783 -4.18547 3108 ft 145 kts 268°
2026-05-07 19:59 55.98849 -4.20355 3123 ft 144 kts 259°
2026-05-07 19:59 55.98396 -4.21841 3093 ft 137 kts 227°
2026-05-07 19:59 55.97800 -4.23158 2948 ft 135 kts 229°
2026-05-07 20:00 55.97222 -4.24455 2760 ft 131 kts 227°
2026-05-07 20:00 55.96634 -4.25669 2592 ft 128 kts 223°
2026-05-07 20:00 55.96016 -4.26794 2425 ft 126 kts 222°
2026-05-07 20:00 55.95403 -4.27911 2263 ft 126 kts 223°
2026-05-07 20:01 55.94804 -4.28959 2148 ft 105 kts 220°
2026-05-07 20:01 55.94496 -4.29461 2192 ft 86 kts 219°
2026-05-07 20:01 55.93964 -4.30272 1949 ft 107 kts 218°
2026-05-07 20:01 55.93421 -4.31226 1756 ft 114 kts 225°
2026-05-07 20:02 55.92924 -4.32371 1511 ft 117 kts 228°
2026-05-07 20:02 55.92443 -4.33504 1385 ft 113 kts 227°
2026-05-07 20:02 55.91898 -4.34492 1312 ft 104 kts 219°
2026-05-07 20:02 55.91400 -4.35417 1249 ft 110 kts 222°
2026-05-07 20:03 55.90844 -4.36446 1061 ft 118 kts 224°
2026-05-07 20:03 55.90268 -4.37517 760 ft 118 kts 224°
2026-05-07 20:03 55.89735 -4.38582 667 ft 112 kts 227°
2026-05-07 20:03 55.89178 -4.39653 489 ft 121 kts 226°
2026-05-07 20:04 55.88595 -4.40709 357 ft 115 kts 223°
2026-05-07 20:04 55.88057 -4.41689 154 ft 108 kts 225°
2026-05-07 20:04 55.87546 -4.42658 47 ft 105 kts 224°
2026-05-07 20:04 55.87153 -4.43393 35 ft 37 kts 228°
2026-05-07 20:05 55.87050 -4.43582 35 ft 14 kts 217°
2026-05-07 20:05 55.86975 -4.43643 34 ft 11 kts 202°
2026-05-07 20:05 55.86899 -4.43698 29 ft 12 kts 201°
2026-05-07 20:05 55.86834 -4.43737 28 ft 8 kts 192°
2026-05-07 20:06 55.86796 -4.43751 28 ft 1 kts 192°
2026-05-07 20:06 55.86788 -4.43754 28 ft 1 kts 192°
2026-05-07 20:06 55.86784 -4.43756 28 ft 0 kts 192°
2026-05-07 20:07 55.86751 -4.43750 29 ft 6 kts 153°
2026-05-07 20:07 55.86720 -4.43722 29 ft 3 kts 146°
2026-05-07 20:07 55.86724 -4.43689 29 ft 7 kts 62°
2026-05-07 20:07 55.86755 -4.43581 29 ft 9 kts 66°
2026-05-07 20:08 55.86773 -4.43452 29 ft 13 kts 75°
2026-05-07 20:08 55.86792 -4.43318 29 ft 9 kts 94°
2026-05-07 20:08 55.86751 -4.43269 29 ft 6 kts 161°
2026-05-07 20:08 55.86714 -4.43249 29 ft 4 kts 163°
2026-05-07 20:09 55.86689 -4.43236 29 ft 3 kts 163°
2026-05-07 20:09 55.86667 -4.43226 29 ft 3 kts 165°
2026-05-07 20:09 55.86639 -4.43212 29 ft 6 kts 163°
2026-05-07 20:10 55.86574 -4.43169 29 ft 2 kts 116°
2026-05-07 20:10 55.86581 -4.43109 29 ft 6 kts 72°
2026-05-07 20:10 55.86585 -4.43087 29 ft 0 kts 73°
2026-05-07 20:10 55.86585 -4.43086 29 ft 0 kts 73°